Погода в Чурапче

Погода в Чурапче : погода сейчас, прогноз погоды и архив. Всё, что Вы хотите узнать о погоде в Чурапче!

Хотите узнать прогноз погоды в Чурапче? Тогда Вам сюда: Погода в Чурапче

Поиск расширенной информации на нашем сайте:

Другие новости

Новости СМИ2

Главная страница сайта

Новости сайта

03.07.2017

Напоминаем, что на нашем специализированном сайте Метеоцентр.Азия вы можете получить высокодетализированные автоматические прогнозы погоды по пунктам России, СНГ и мира в авиационном формате (включающие направление и скорость ветра, видимость, явления погоды, количество и форму облачности, нижнюю и верхнюю границу облачности).


Погода в Чурапче - сегодня

Время (UTC), дата Ветер
(°,м/с) 
Видим.   Явления Облачность Т
(°С)
Тd
(°С)
f(%) Тe
(°С)
Pmin
(гПа)
dP
(гПа)
Po
(мм)
O2
(г/м3)
Тmin Tmax R s Состояние
почвы
06 18.07.18 280 (З) 5{11}  20000 м    5/0 средняя, верхняя 
[Ac trans|Ci fib]
+18.2 -3.6 22 +18  1003.6  0.4  737  279           
09 18.07.18 310 (СЗ) 4{11}  20000 м    ясно 
+17.8 -2.4 25 +18  1005.3  1.7  739  280           
12 18.07.18 290 (З) 20000 м    8/5 600 м верхняя 
[Sc|Ci fib]
+15.3 +3.6 45 +16  1007.2  1.7  740  282    +19.5       
15 18.07.18 270 (З) 20000 м    3/0 верхняя 
[Ci fib]
+10.2 +5.4 72 +11  1008.9  1.3  741  287           
18 18.07.18 320 (СЗ) 20000 м    1/0 верхняя 
[Ci fib]
+8.9 +5.4 79 +10  1010.2  1.2  742  289           
21 18.07.18 300 (СЗ) 20000 м    ясно 
+9.4 +5.5 77 +10  1011.5  1.3  743  288           
00 19.07.18 180 (Ю) 20000 м    ясно 
+14.1 +7 62 +15  1012.2  743  284  +7        влажная 
03 19.07.18 160 (Ю) 20000 м    3/3 1000 м 
[Cu hum]
+17.8 +8.1 53 +19  1011.7  -0.2  743  280           
06 19.07.18 020 (С) 20000 м    ясно 
+20.4 +8 45 +20  1010.6  -0.9  743  277           
09 19.07.18 090 (В) 20000 м    ясно 
+20.8 +6.5 39 +21  1009.9  -0.7  742  277           
12 19.07.18 100 (В) 20000 м    ясно 
+17 +9.4 61 +19  1010.3  0.2  742  280    +22       
15 19.07.18 тихо ()   20000 м    ясно 
+11.4 +9.9 90 +13  1010.4  -0.3  742  285           
18 19.07.18 тихо ()   20000 м    ясно 
+7.8 +7 95 +8  1010.5  -0.2  742  289           
21 19.07.18 070 (В) 20000 м    3/0 верхняя 
[Ci fib]
+11.2 +8.4 83 +12  1009.6  -0.6  741  286           
00 20.07.18 100 (В) 20000 м    8/0 верхняя 
[Ci fib]
+19.7 +7.5 45 +21  1008.7  -0.3  741  277  +7.3        влажная 
03 20.07.18 170 (Ю) 20000 м    9/0 средняя, верхняя 
[Ac trans|Ci fib]
+21.3 +7.2 40 +21  1007.7  -0.9  741  276           
06 20.07.18 080 (В) 20000 м    9/0 верхняя 
[Ci sp]
+22.6 +7.4 38 +23  1006.1  -1.5  739  274           
09 20.07.18 170 (Ю) 20000 м    9/0 верхняя 
[Ci sp]
+21.6 +7.7 41 +22  1005.8  -0.3  739  275           
12 20.07.18 190 (Ю) 20000 м    9/0 верхняя 
[Ci sp]
+18.6 +8.2 51 +20  1006.3  0.3  739  278    +23.7       
15 20.07.18 160 (Ю) 20000 м    8/0 верхняя 
[Ci sp]
+13.3 +9.4 77 +16  1007  0.3  740  282           
18 20.07.18 тихо ()   20000 м    3/0 верхняя 
[Ci sp]
+9.6 +8.8 95 +10  1007.7  0.4  740  286           
21 20.07.18 тихо ()   20000 м    ясно 
+12.7 +10.2 85 +14  1008.3  0.8  741  283           
00 21.07.18 100 (В) 20000 м    3/0 верхняя 
[Ci fib]
+20.6 +10.2 51 +22  1007.6  -0.1  740  276  +9.2        сухая 
03 21.07.18 070 (В) 20000 м    3/0 верхняя 
[Ci fib]
+25.2 +11.6 43 +29  1006.4  -0.9  740  271           
06 21.07.18 160 (Ю) 20000 м    4/1 1000 м верхняя 
[Cu hum|Ci fib]
+27.1 +8.8 32 +27  1004.8  -1.4  739  269           
Время (UTC), дата Ветер
(°,м/с) 
Видим.   Явления Облачность Т
(°С)
Тd
(°С)
f(%) Тe
(°С)
Pmin
(гПа)
dP
(гПа)
Po
(мм)
O2
(г/м3)
Тmin Tmax R s Состояние
почвы

Для получения пояснительной информации подведите курсор к названию столбца.

ПОГОДА в Чурапче - архив

Всё, что Вы хотите узнать о погоде в Чурапче - удобно и подробно!

Выберите нужную дату (начиная с 1 января 2015* года) и нажмите кнопку "Найти".
Будут отображены архивные сводки погоды по пункту Чурапча, начиная с указанной даты.


Отображать данные в формате CSV (для использования в таблицах Excel)


Внимание! Наш архив погоды предназначен исключительно для личного некоммерческого использования в познавательных целях. Если Вам необходимы официальные справки о состоянии погоды (для производственных, юридических, коммерческих и т.п. целей), обращайтесь в органы Росгидромета.

*Примечание: данная дата относится к архиву по метеостанциям СССР (Россия, СНГ, Балтия).
Архив по метеостанциям Зарубежной Европы и Азии (кроме Китая) хранится 10 дней, по другим регионам земного шара (Китай, Африка, Америка, Австралия, Океания) - 1 день.

Чурапча - район местоположения метеостанции


Название, широта, долгота, высота метеостанции:
Чурапча 62°ш. 132.6°д. 186 м над ур. моря [Российская Федерация]

Дополнительная информация

В oтличие oт бoльшинства пoгoдных сайтoв мы публикуем пoдрoбную метеoинфoрмацию в детальнoм прoфессиoнальнoм фoрмате.

Характеристики температуры и влажнoсти вoздуха измеряются на высoте 2 м в тени вдали oт зданий и деревьев.
Скoрoсть ветра измеряется на высoте 10 м (на урoвне рoста челoвека скoрoсть ветра ниже в 1.5-2 раза). Если метеoстанция нахoдится в гoрoде или в лесу, тo скoрoсть ветра занижена на 2-4 м/с пo сравнению с oткрытым местoм. Скoрoсть ветра над акватoриями крупных рек и oзёр, а также на вершинах хoлмoв на 2-5 м/с выше, чем в oбычных услoвиях.
Атмoсфернoе давление в разных тoчках местнoсти мoжет значительнo oтличаться oт давления на метеoстанции, в зависимoсти oт услoвий рельефа (при пoдъёме на 10 м давление пoнижается примернo на 1 мм рт.ст.).